COSMOS 2499

Satellite information

Favourite Embed

Satellite Type and Status

PAYLOADIN ORBIT

Key statistics

Satellite COSMOS 2499 at a glance.

Uptime

4223

Days in orbit

Revolutions

≈ 12.8

Per day

Orbit

LEO

Low Earth Orbit

Inclination

82.5

Latest

Satellite identification and parameters

Extended collection of information and parameters for COSMOS 2499.

Object identification

Identified? True

Debris? False

Object name: COSMOS 2499

International designator: 2014-028E

Object number (NORAD): 39765

Object ID (CCSDS): 39765

Country: COMMONWEALTH OF INDEPENDENT STATES (CIS)

Current information (Y/N): Y

RCS size: MEDIUM

Orbital parameters

Period: 112.246 minutes

Inclination: 82.4508 deg

SMA: 7707.976 km

Apoapsis: 1509.215 km

Periapsis: 1150.466 km

RAAN: 18.5709 deg

Eccentricy: 0.02327123

Argument of periapsis: 80.5697 deg

Mean anomaly: 282.1629 deg

Mean motion: 12.82898419 rev/day

Mean motion (dot): 0.00000016 rev/day2

B* drag term: 0.000009570476 1/REarth

Two-line elements (TLE)

Creation date: Dec. 12, 2025, 10:14 a.m.

Reference frame: TEME

Reference center: EARTH

Epoch: Dec. 12, 2025, 6:20 a.m. UTC

TLE line 0: 0 COSMOS 2499

TLE line 1: 1 39765U 14028E 25346.26423799 .00000016 00000-0 95705-5 0 9995

TLE line 2: 2 39765 82.4508 18.5709 0232712 80.5697 282.1629 12.82898419541058

Live tracking on map

Real-time ground track for satellite COSMOS 2499.

In-orbit conjunctions

There are no conjunctions computed for COSMOS 2499, at the moment. Check back to stay up to date, as we update our databases every day.

Go to all conjunctions

Associated space launch

Classified payload for Russia

COSMOS 2499 was lifted into orbit during the mission ‘Rokot / Briz-KM | 3x Strela-3M (Kosmos 2496, Kosmos 2497, Kosmos 2498) & Kosmos 2499’, on board a Rokot/Briz-KM space rocket.

The launch took place on May 23, 2014, 5:27 a.m. from 133/3 (133L).

For more information about the launch, click the button.

Launch to space Rokot / Briz-KM | 3x Strela-3M (Kosmos 2496, Kosmos 2497, Kosmos 2498) & Kosmos 2499
Rokot / Briz-KM | 3x Strela-3M (Kosmos 2496, Kosmos 2497, Kosmos 2498) & Kosmos 2499

Agency: N/A

Status: Launch Successful

Launch date: May 23, 2014, 5:27 a.m. UTC

Rocket: Rokot/Briz-KM

Launch pad: 133/3 (133L)

Location: Plesetsk Cosmodrome, Russian Federation

...

Latest news about this satellite

There are no fresh news available about this satellite. Check back as we update our databases every day.


Newsletter sign-up

Weekly statistics, charts and insights to help you stay on top of the space industry.